Cloud_Cover
1 5 3 0 0 0 0 0 0 0 0 0 0 0 0 0 0 0 0 2 13 17 6 9 16 14 0 0 1 0 5 22 88 0 35 85 37 96 47 65 98 92 89
100 23 6 4 3 0 0 0 0 0 0 0 0 0 0 0 4 1 0 0 0 6 9 3 1 0 13 13 0 14 16 35 99 100 70 62 62 46 89 41 64 82 18
75 60 9 4 0 1 4 0 0 0 0 2 4 0 0 0 0 0 0 0 0 2 0 0 0 1 5 7 18 17 6 24 54 48 33 55 93 78 80 37 71 100 96
95 22 5 5 5 1 0 0 0 0 0 0 0 0 0 4 7 1 0 2 0 1 0 0 1 0 2 10 0 2 13 28 13 17 59 88 100 80 87 100 100 92 60
100 47 5 5 1 0 0 0 0 0 0 0 14 18 3 2 8 29 2 7 1 0 0 0 1 0 0 0 0 0 18 9 22 32 95 86 56 76 100 100 100 100 48
26 5 35 78 8 5 3 0 0 0 1 16 31 32 20 0 1 0 2 23 11 0 0 0 0 0 0 0 0 0 1 44 80 93 100 100 100 100 100 100 100 100 92
62 100 44 100 98 8 5 5 0 1 30 53 61 51 36 0 0 0 0 4 0 0 0 0 0 0 0 0 0 14 100 69 86 100 100 100 100 100 100 100 100 100 100
100 100 63 14 95 100 93 5 5 13 64 73 98 94 33 4 0 0 1 0 0 0 0 0 0 0 0 0 4 1 41 84 36 71 100 97 98 100 100 100 100 100 90
100 100 100 100 28 14 9 5 6 40 96 75 92 95 74 2 0 0 53 0 0 0 0 0 0 0 0 0 1 8 31 31 30 37 100 88 100 98 65 99 100 100 100
100 100 100 100 44 21 37 14 43 90 74 50 58 13 10 16 46 0 2 0 0 0 0 0 7 0 0 0 0 0 0 0 32 51 50 97 100 100 100 100 92 100 100
100 100 100 100 100 97 32 69 92 66 76 75 65 38 5 27 2 0 0 0 0 0 0 0 0 0 0 0 0 0 0 11 5 60 65 79 94 100 100 100 98 100 100
100 100 100 100 100 100 100 100 89 88 55 89 69 18 5 5 5 2 7 0 0 0 0 4 0 0 0 5 0 0 0 2 25 29 46 47 46 62 100 100 100 76 95
100 83 7 66 50 80 100 86 100 94 54 63 56 47 5 5 5 5 0 3 0 2 0 1 1 0 2 3 0 0 0 0 6 33 74 86 71 97 63 53 100 100 92
100 100 90 100 100 100 49 86 99 82 83 72 77 89 49 13 5 0 0 0 1 2 5 5 1 5 5 19 2 5 0 0 1 0 39 64 67 54 46 54 70 100 99
34 18 39 61 84 77 60 17 85 11 60 100 91 90 87 9 5 5 3 5 5 12 5 5 5 5 11 27 72 4 4 0 0 0 0 0 0 14 31 73 87 61 84
78 96 96 100 100 99 94 100 86 87 91 65 98 39 42 5 5 5 5 5 5 5 50 63 16 5 40 79 5 5 5 1 0 0 4 1 5 2 5 10 57 99 81
100 100 100 100 100 100 100 100 85 57 100 100 98 100 51 10 10 5 5 14 5 40 100 100 48 19 100 92 44 5 5 5 0 4 1 5 5 5 5 5 5 94 100
100 100 100 100 100 92 64 67 99 98 100 97 100 58 90 63 17 66 100 14 19 98 33 70 77 32 100 100 16 19 6 5 5 3 4 5 5 5 6 11 5 5 61
100 100 100 96 64 47 55 54 99 97 99 97 94 62 60 44 97 83 58 16 19 13 72 100 100 100 100 98 45 56 22 5 5 5 4 5 5 6 30 17 5 5 5
76 98 96 40 50 19 23 44 99 98 81 99 96 86 14 30 5 11 90 5 54 100 100 97 100 100 100 100 100 36 5 5 5 5 5 5 29 64 56 6 5 5 0
100 100 53 62 23 33 78 51 73 59 100 100 99 37 20 53 72 40 5 5 30 97 100 100 100 100 100 100 100 81 5 5 5 5 5 5 5 5 5 4 0 0 0
100 94 87 95 98 37 57 82 81 98 99 94 44 9 73 58 30 81 7 86 100 100 100 100 100 100 100 100 45 31 10 64 70 100 59 12 4 2 0 0 0 0 0
75 30 21 23 52 25 34 92 100 98 98 66 7 5 5 42 100 68 66 22 95 100 100 100 100 97 77 32 65 73 70 100 93 8 5 1 0 0 0 0 0 0 0
67 92 86 38 23 46 99 100 95 32 74 69 40 14 27 33 58 94 34 13 35 87 100 100 100 100 66 68 82 100 100 96 30 9 5 3 0 0 0 0 0 0 0
100 99 84 62 100 94 99 100 96 36 37 56 46 46 26 46 12 20 5 23 55 99 99 71 68 74 99 100 100 100 72 8 5 7 0 0 0 0 0 0 0 0 0
100 93 85 57 97 93 100 94 58 68 85 88 45 71 60 48 5 8 43 65 74 81 97 90 98 100 93 78 28 6 5 5 5 5 2 4 2 0 0 0 0 0 0